Home > Weather > Sidney > Past weeks

Flag for Canada Weather for the Past 2 Weeks in Sidney, British Columbia, Canada

Now
43 °F

Passing clouds.


Feels Like: 39 °F
Forecast: 44 / 51 °F
Wind: 6 mph from West

Location: Victoria Int. Airportb. C.

Current Time: Feb 10, 2016 at 1:47:08 AM

Latest Report: Feb 10, 2016 at 1:00 AM


Visibility: 20 mi

Pressure: 30.11 "Hg

Humidity: 93%

Dew point: 41 °F

Location of SidneyLocation

Historic Weather in Sidney — Graph

°F

Sidney Temperature Yesterday

Maximum temperature yesterday: 55 °F (at 2:00 PM)
Minimum temperature yesterday: 37 °F (at 5:57 AM)
Average temperature yesterday: 45 °F

High & Low Weather Summary for the Past Weeks

 TemperatureHumidityPressure
High55 °F (Feb 9, 2:00 PM)100% (Jan 26, 5:00 AM)30.62 "Hg (Jan 26, 5:00 AM)
Low34 °F (Feb 1, 1:00 AM)59% (Feb 9, 2:00 PM)29.58 "Hg (Jan 29, 12:00 PM)
Average44 °F87%30.13 "Hg
* Reported Midnight between Jan 25 and Jan 26 — Midnight between Feb 9 and Feb 10, Sidney, Weather by CustomWeather, © 2016

Note: Actual official high and low records may vary slightly from our data, if they occured in-between our weather recording intervals... More about our weather records

Advertising

Sidney Weather History for the Previous 24 Hours

 ConditionsComfort  
Time TempWeatherWind HumidityBarometerVisibility
12:00 AM
Wed, Feb 10
43 °FPartly cloudy.5 mph93%30.10 "Hg20 mi
11:00 PM
Tue, Feb 9
41 °FPassing clouds.5 mph93%30.10 "Hg20 mi
10:00 PM41 °FPassing clouds.8 mph93%30.09 "Hg30 mi
9:00 PM41 °FPassing clouds.6 mph93%30.10 "Hg30 mi
8:00 PM43 °FOvercast.3 mph87%30.10 "Hg30 mi
7:00 PM43 °FOvercast.3 mph87%30.11 "Hg30 mi
6:00 PM46 °FPassing clouds.No wind82%30.11 "Hg30 mi
5:00 PM50 °FPartly sunny.2 mph76%30.12 "Hg30 mi
4:00 PM55 °FPartly sunny.2 mph59%30.12 "Hg30 mi
3:00 PM55 °FPartly sunny.No wind59%30.13 "Hg30 mi
2:00 PM55 °FPartly sunny.2 mph59%30.13 "Hg30 mi
1:00 PM54 °FPartly sunny.No wind63%30.16 "Hg30 mi
12:00 PM54 °FPartly sunny.5 mph63%30.18 "Hg30 mi
11:00 AM50 °FPartly sunny.6 mph76%30.20 "Hg30 mi
10:00 AM46 °FScattered clouds.5 mph93%30.20 "Hg30 mi
9:00 AM43 °FPartly sunny.8 mph100%30.21 "Hg30 mi
8:00 AM37 °FFog.2 mph100%30.20 "Hg20 mi
7:00 AM39 °FFog.5 mph100%30.19 "Hg3 mi
6:00 AM37 °FPassing clouds.6 mph100%30.20 "Hg7 mi
5:57 AM37 °FPassing clouds.5 mph100%30.21 "Hg7 mi
5:00 AM39 °FFog.5 mph93%30.22 "Hg1 mi
4:00 AM39 °FPassing clouds.6 mph100%30.24 "Hg20 mi
3:00 AM41 °FPassing clouds.6 mph100%30.25 "Hg20 mi
2:00 AM41 °FPassing clouds.6 mph93%30.27 "Hg20 mi
1:00 AM43 °FPassing clouds.6 mph93%30.29 "Hg20 mi
Weather by CustomWeather, © 2016

See weather overviewHow to use our weather pages